Regional Weather Roundup
Issued by NWS

Home | Current Version | Previous Version | Graphics & Text | Print | Product List | Glossary On
Versions: 1 2 3 4 5 6 7 8 9 10 11 12 13 14 15 16 17 18 19 20 21 22 23 24 25 26 27 28 29 30 31 32 33 34 35 36 37 38 39 40 41 42 43 44 45 46 47 48 49 50
000
ASUS43 KFSD 231810
RWRSD

WEATHER ROUNDUP FOR SOUTH DAKOTA
NATIONAL WEATHER SERVICE SIOUX FALLS SD
100 PM CDT SAT SEP 23 2017

NOTE: "FAIR" INDICATES FEW OR NO CLOUDS BELOW 12,000 FEET WITH NO
SIGNIFICANT WEATHER AND/OR OBSTRUCTIONS TO VISIBILITY.


SDZ001>005-009-010-012>017-231900-
NORTHWEST AND NORTH CENTRAL SOUTH DAKOTA

CITY           SKY/WX    TMP DP  RH WIND       PRES   REMARKS
BUFFALO          N/A     46  41  82 N9        30.03F
FAITH            N/A     48  46  93 NE17      30.05F
MOBRIDGE       CLOUDY    57  48  72 N12       30.01F
$$

SDZ012>016-024>037-041>051-057-063-072>074-231900-
SOUTHWEST AND SOUTH CENTRAL SOUTH DAKOTA

CITY           SKY/WX    TMP DP  RH WIND       PRES   REMARKS
RAPID CTY ARPT CLOUDY    46  43  87 N15       30.07R
PIERRE         CLOUDY    51  48  89 N10       30.02S
CUSTER         CLOUDY    44  41  89 E9        30.04R FOG
ELLSWORTH AFB  CLOUDY    46  45  97 N12       30.06
PHILIP         LGT RAIN  50  47  89 NE8       30.06R FOG
PINE RIDGE     LGT RAIN  46  46 100 NE8       30.05R FOG
SPEARFISH      FAIR      43  43 100 N6        30.07S FOG
WINNER         LGT RAIN  53  51  93 N10       30.00S FOG
$$

SDZ004>011-016>023-039-040-231900-
NORTHEAST SOUTH DAKOTA

CITY           SKY/WX    TMP DP  RH WIND       PRES   REMARKS
ABERDEEN       CLOUDY    52  51  97 N10       30.02F
WATERTOWN      LGT RAIN  54  54 100 E12       29.97F
BROOKINGS      CLOUDY    60  57  89 N13       30.00S
SISSETON         N/A     54  53  97 NE9G20    29.98F
$$

SDZ017-020-022-023-036>040-048>070-231900-
SOUTHEAST SOUTH DAKOTA

CITY           SKY/WX    TMP DP  RH WIND       PRES   REMARKS
SIOUX FALLS    CLOUDY    73  67  81 SE8       29.95F
HURON          CLOUDY    56  54  93 NW13      29.99R
CHAMBERLAIN    CLOUDY    55  55 100 N12       29.99F
MITCHELL       LGT RAIN  58  57  97 N7        29.96F
YANKTON        CLOUDY    65  59  81 N7        29.96F
$$

ABBREVIATIONS USED IN REMARKS
   TC - TEMPERATURE IN CELSIUS
  WCI - WIND CHILL INDEX
   HX - HEAT INDEX
  VSB - VISIBILITY




USA.gov is the U.S. government's official web portal to all federal, state and local government web resources and services.